Location: Newark
(43.4306°N, 0.3089°E)
Time: 01:48:52
(UTC+00:00)

Vanguard 3 - Pass Details

Date: 29 August 2019
Orbit: 508 x 3262 km, 33.3° (Epoch: 17 October)

Event Time Altitude Azimuth Distance (km) Brightness Sun altitude
Rises 12:05:03 0° 202° (SSW) 7,004 12.4 55.9°
Reaches altitude 10° 12:12:07 10° 188° (S) 5,632 12.2 55.8°
Maximum altitude 12:21:48 19° 152° (SSE) 4,186 11.5 55.6°
Drops below altitude 10° 12:29:10 10° 113° (ESE) 4,166 11.0 55.3°
Sets 12:33:12 0° 96° (E) 4,701 11.0 55.1°
